Regional Weather Roundup
Issued by NWS

Home | Current Version | Previous Version | Graphics & Text | Print | Product List | Glossary On
Versions: 1 2 3 4 5 6 7 8 9 10 11 12 13 14 15 16 17 18 19 20 21 22 23 24 25 26 27 28 29 30 31 32 33 34 35 36 37 38 39 40 41 42 43 44 45 46 47 48 49 50
000
ASUS43 KLMK 040310
RWRKY
KENTUCKY REGIONAL WEATHER ROUNDUP
NATIONAL WEATHER SERVICE LOUISVILLE KY
1100 PM EDT MON AUG 03 2015

NOTE "FAIR" INDICATES FEW OR NO CLOUDS BELOW 12,000 FEET
WITH NO SIGNIFICANT WEATHER AND/OR OBSTRUCTIONS TO VISIBILITY.

KYZ001>023-026-027-061>063-070>075-040400-
WESTERN AND SOUTH CENTRAL KENTUCKY

CITY           SKY/WX    TMP DP  RH WIND       PRES   REMARKS
PADUCAH        CLEAR     77  74  90 SW3       29.92R
HENDERSON      CLEAR     75  70  83 CALM      29.91R
OWENSBORO      CLEAR     80  74  82 CALM      29.92R
HOPKINSVILLE   CLEAR     80  73  78 SW5       29.93R
BOWLING GREEN  CLEAR     83  71  67 SW6       29.93R
GLASGOW        CLEAR    N/A N/A N/A CALM      29.93S
$$

KYZ024-025-028>034-038-045-046-053-040400-
NORTH CENTRAL KENTUCKY

CITY           SKY/WX    TMP DP  RH WIND       PRES   REMARKS
LOUISVILLE/SDF CLEAR     82  69  64 NW7       29.89R
LOUISVILLE/LOU CLEAR     83  69  62 W6        29.90R
FORT KNOX      CLEAR     78  72  80 SW5       29.90R
$$

KYZ035>037-039>044-047>052-055>060-089>105-040400-
NORTHEAST KENTUCKY

CITY           SKY/WX    TMP DP  RH WIND       PRES   REMARKS
LEXINGTON      MOCLDY    78  69  73 E7        29.93R
COVINGTON      PTCLDY    69  66  90 S5        29.91R
FRANKFORT      MOCLDY    78  68  71 CALM      29.91R
$$

KYZ054-064>069-076>088-106>120-040400-
SOUTHEAST KENTUCKY

CITY           SKY/WX    TMP DP  RH WIND       PRES   REMARKS
JACKSON        CLOUDY    72  60  66 CALM      29.98R
LONDON         PTCLDY    80  67  64 SW6       29.97R
SOMERSET       CLEAR     75  68  78 CALM      29.96R
MIDDLESBORO    CLEAR     72  69  89 CALM      30.00R
MONTICELLO     CLEAR     72  71  96 CALM      29.98R
$$




USA.gov is the U.S. government's official web portal to all federal, state and local government web resources and services.